AAY983 KPIE-KEYW

Flight info

Callsign AAY983
Flight time N/A
Altitude 29000
Route SABEE KRAKN1
Aircraft A319/M-SDE3FGHIRWY/LB1

Departure

Time 2026-04-26 21:18
Airport St. Petersburg Clearwater International Airport (KPIE)

Arrival

Time N/A
Airport Key West International Airport (KEYW)
Time Latitude Longitude Altitude Speed Heading
2026-04-26 20:48 27.90756 -82.69064 28 ft 0 kts 178°
2026-04-26 20:50 27.90757 -82.69064 28 ft 0 kts 178°
2026-04-26 21:06 27.90759 -82.69064 24 ft 1 kts 178°
2026-04-26 21:07 27.90776 -82.69066 28 ft 3 kts 172°
2026-04-26 21:07 27.90796 -82.69070 24 ft 3 kts 161°
2026-04-26 21:07 27.90814 -82.69079 24 ft 3 kts 146°
2026-04-26 21:07 27.90829 -82.69093 28 ft 3 kts 123°
2026-04-26 21:08 27.90836 -82.69110 27 ft 2 kts 91°
2026-04-26 21:08 27.90836 -82.69114 27 ft 3 kts 88°
2026-04-26 21:10 27.90836 -82.69113 27 ft 0 kts 88°
2026-04-26 21:10 27.90836 -82.69105 27 ft 2 kts 88°
2026-04-26 21:11 27.90838 -82.69067 24 ft 7 kts 88°
2026-04-26 21:11 27.90840 -82.69008 24 ft 8 kts 88°
2026-04-26 21:11 27.90832 -82.68978 24 ft 0 kts 122°
2026-04-26 21:11 27.90825 -82.68970 26 ft 3 kts 138°
2026-04-26 21:12 27.90797 -82.68950 24 ft 6 kts 149°
2026-04-26 21:12 27.90756 -82.68939 24 ft 6 kts 178°
2026-04-26 21:12 27.90699 -82.68938 24 ft 10 kts 179°
2026-04-26 21:12 27.90630 -82.68931 24 ft 4 kts 171°
2026-04-26 21:13 27.90601 -82.68925 24 ft 5 kts 169°
2026-04-26 21:13 27.90555 -82.68917 24 ft 8 kts 173°
2026-04-26 21:13 27.90489 -82.68906 24 ft 10 kts 169°
2026-04-26 21:13 27.90418 -82.68891 24 ft 11 kts 169°
2026-04-26 21:14 27.90343 -82.68878 24 ft 11 kts 173°
2026-04-26 21:14 27.90265 -82.68866 24 ft 12 kts 173°
2026-04-26 21:14 27.90183 -82.68858 23 ft 12 kts 180°
2026-04-26 21:14 27.90093 -82.68860 21 ft 14 kts 181°
2026-04-26 21:15 27.90001 -82.68863 21 ft 14 kts 182°
2026-04-26 21:15 27.89916 -82.68856 23 ft 11 kts 170°
2026-04-26 21:15 27.89839 -82.68844 24 ft 11 kts 173°
2026-04-26 21:15 27.89757 -82.68832 24 ft 13 kts 173°
2026-04-26 21:16 27.89696 -82.68793 25 ft 9 kts 110°
2026-04-26 21:16 27.89698 -82.68726 22 ft 7 kts 79°
2026-04-26 21:16 27.89699 -82.68721 22 ft 0 kts 80°
2026-04-26 21:17 27.89700 -82.68716 22 ft 3 kts 80°
2026-04-26 21:17 27.89709 -82.68660 20 ft 12 kts 79°
2026-04-26 21:17 27.89778 -82.68624 19 ft 13 kts 351°
2026-04-26 21:18 27.89992 -82.68662 21 ft 69 kts 351°
2026-04-26 21:18 27.90736 -82.68795 24 ft 144 kts 351°
2026-04-26 21:18 27.91883 -82.68958 341 ft 173 kts 349°
2026-04-26 21:18 27.93084 -82.69119 1088 ft 179 kts 348°
2026-04-26 21:19 27.94366 -82.69309 1656 ft 188 kts 348°
2026-04-26 21:19 27.95723 -82.69528 1791 ft 204 kts 349°
2026-04-26 21:19 27.97216 -82.69794 1697 ft 237 kts 347°
2026-04-26 21:19 27.98905 -82.70095 1629 ft 247 kts 347°
2026-04-26 21:20 28.00524 -82.70377 1605 ft 223 kts 346°
2026-04-26 21:20 28.01848 -82.71031 1602 ft 206 kts 315°
2026-04-26 21:20 28.02564 -82.72470 1779 ft 226 kts 279°
2026-04-26 21:20 28.02567 -82.74325 2336 ft 244 kts 265°
2026-04-26 21:21 28.02377 -82.76266 3199 ft 251 kts 264°
2026-04-26 21:21 28.02159 -82.78251 4074 ft 256 kts 264°
2026-04-26 21:21 28.01925 -82.80273 4945 ft 262 kts 264°
2026-04-26 21:21 28.01670 -82.82337 5807 ft 267 kts 264°
2026-04-26 21:22 28.01182 -82.84377 6626 ft 276 kts 244°
2026-04-26 21:22 27.99915 -82.86036 7421 ft 286 kts 217°
2026-04-26 21:22 27.98066 -82.86919 8231 ft 296 kts 191°
2026-04-26 21:23 27.93927 -82.86552 9838 ft 308 kts 164°
2026-04-26 21:23 27.91974 -82.85477 10324 ft 324 kts 147°
2026-04-26 21:23 27.90046 -82.83995 10550 ft 347 kts 145°
2026-04-26 21:23 27.88046 -82.82377 11037 ft 358 kts 144°
2026-04-26 21:24 27.86014 -82.80704 11656 ft 364 kts 144°
2026-04-26 21:24 27.83951 -82.79011 11949 ft 368 kts 144°
2026-04-26 21:24 27.81865 -82.77317 12633 ft 371 kts 145°
2026-04-26 21:24 27.79758 -82.75617 13319 ft 374 kts 145°
2026-04-26 21:25 27.77648 -82.73924 13941 ft 379 kts 145°
2026-04-26 21:25 27.75488 -82.72192 14532 ft 383 kts 146°
2026-04-26 21:25 27.73307 -82.70447 15134 ft 386 kts 146°
2026-04-26 21:25 27.71103 -82.68686 15744 ft 389 kts 146°
2026-04-26 21:26 27.68886 -82.66915 16353 ft 392 kts 146°
2026-04-26 21:26 27.66648 -82.65126 16950 ft 396 kts 146°
2026-04-26 21:26 27.64394 -82.63327 17545 ft 399 kts 146°
2026-04-26 21:26 27.62117 -82.61509 18145 ft 402 kts 146°
2026-04-26 21:27 27.59823 -82.59679 18674 ft 405 kts 146°
2026-04-26 21:27 27.57510 -82.57835 19209 ft 408 kts 146°
2026-04-26 21:27 27.55218 -82.56007 19745 ft 411 kts 146°
2026-04-26 21:27 27.52880 -82.54145 20296 ft 413 kts 146°
2026-04-26 21:28 27.50529 -82.52271 20778 ft 416 kts 146°
2026-04-26 21:28 27.48165 -82.50387 20930 ft 416 kts 146°
2026-04-26 21:28 27.45806 -82.48507 20969 ft 416 kts 146°
2026-04-26 21:28 27.43447 -82.46627 20969 ft 415 kts 146°
2026-04-26 21:29 27.41090 -82.44749 20969 ft 415 kts 146°
2026-04-26 21:29 27.38731 -82.42872 20971 ft 415 kts 147°
2026-04-26 21:29 27.36372 -82.40995 20970 ft 415 kts 146°
2026-04-26 21:29 27.34013 -82.39117 20963 ft 415 kts 146°
2026-04-26 21:30 27.31661 -82.37248 20964 ft 414 kts 146°
2026-04-26 21:30 27.29303 -82.35379 20964 ft 414 kts 147°
2026-04-26 21:30 27.26979 -82.33540 20964 ft 414 kts 147°
2026-04-26 21:30 27.24619 -82.31674 20963 ft 415 kts 146°
2026-04-26 21:31 27.22257 -82.29805 20966 ft 416 kts 146°
2026-04-26 21:31 27.19893 -82.27933 20965 ft 416 kts 146°
2026-04-26 21:31 27.17529 -82.26062 20964 ft 416 kts 146°
2026-04-26 21:31 27.15167 -82.24195 20965 ft 416 kts 147°
2026-04-26 21:32 27.12801 -82.22327 20965 ft 416 kts 147°
2026-04-26 21:32 27.10390 -82.20547 20964 ft 414 kts 153°
2026-04-26 21:32 27.07775 -82.19220 20966 ft 411 kts 163°
2026-04-26 21:32 27.05023 -82.18414 20965 ft 408 kts 173°
2026-04-26 21:33 27.02221 -82.17877 20964 ft 408 kts 173°
2026-04-26 21:33 26.99421 -82.17336 20964 ft 408 kts 173°
2026-04-26 21:33 26.96662 -82.16800 20964 ft 408 kts 173°
2026-04-26 21:33 26.93861 -82.16255 20959 ft 409 kts 173°
2026-04-26 21:34 26.91056 -82.15710 20964 ft 409 kts 173°
2026-04-26 21:34 26.88251 -82.15163 20965 ft 410 kts 173°
2026-04-26 21:34 26.85443 -82.14618 20966 ft 410 kts 173°
2026-04-26 21:34 26.82632 -82.14075 20962 ft 410 kts 173°
2026-04-26 21:35 26.79822 -82.13533 20962 ft 410 kts 173°
2026-04-26 21:35 26.77014 -82.12993 20962 ft 410 kts 173°
2026-04-26 21:35 26.74209 -82.12441 20962 ft 410 kts 172°
2026-04-26 21:35 26.71410 -82.11826 20955 ft 410 kts 171°
2026-04-26 21:36 26.68617 -82.11166 20953 ft 410 kts 171°
2026-04-26 21:36 26.66769 -82.10714 20954 ft 410 kts 170°
2026-04-26 21:36 26.63077 -82.09804 20949 ft 411 kts 170°
2026-04-26 21:36 26.60281 -82.09124 20952 ft 411 kts 171°
2026-04-26 21:37 26.57482 -82.08458 20951 ft 411 kts 171°
2026-04-26 21:37 26.54680 -82.07803 20950 ft 411 kts 171°
2026-04-26 21:37 26.51924 -82.06923 20951 ft 414 kts 161°
2026-04-26 21:37 26.49250 -82.05713 20952 ft 415 kts 160°
2026-04-26 21:38 26.46577 -82.04491 20951 ft 415 kts 160°
2026-04-26 21:38 26.43907 -82.03269 20951 ft 415 kts 160°
2026-04-26 21:38 26.41239 -82.02050 20952 ft 415 kts 160°
2026-04-26 21:38 26.38569 -82.00833 20953 ft 415 kts 160°
2026-04-26 21:39 26.35899 -81.99622 20955 ft 415 kts 160°
2026-04-26 21:39 26.33263 -81.98425 20956 ft 415 kts 160°
2026-04-26 21:39 26.30590 -81.97206 20963 ft 415 kts 160°
2026-04-26 21:39 26.27915 -81.95986 20963 ft 415 kts 160°
2026-04-26 21:40 26.25242 -81.94771 20963 ft 415 kts 160°
2026-04-26 21:40 26.22564 -81.93556 20962 ft 415 kts 160°
2026-04-26 21:40 26.19889 -81.92340 20962 ft 415 kts 160°
2026-04-26 21:40 26.17213 -81.91121 20962 ft 415 kts 160°
2026-04-26 21:41 26.14540 -81.89909 20962 ft 415 kts 160°
2026-04-26 21:41 26.11858 -81.88699 20962 ft 415 kts 160°
2026-04-26 21:41 26.09182 -81.87492 20962 ft 415 kts 160°
2026-04-26 21:41 26.06503 -81.86281 20962 ft 415 kts 160°
2026-04-26 21:42 26.03826 -81.85067 20962 ft 415 kts 160°
2026-04-26 21:42 26.01188 -81.83868 20958 ft 416 kts 160°
2026-04-26 21:42 25.98507 -81.82652 20962 ft 416 kts 160°
2026-04-26 21:42 25.95825 -81.81437 20962 ft 416 kts 160°
2026-04-26 21:43 25.93145 -81.80226 20961 ft 416 kts 160°
2026-04-26 21:43 25.90462 -81.79015 20963 ft 416 kts 160°
2026-04-26 21:43 25.87873 -81.77564 20963 ft 419 kts 150°
2026-04-26 21:43 25.85402 -81.75856 20963 ft 419 kts 150°
2026-04-26 21:44 25.82926 -81.74148 20964 ft 419 kts 150°
2026-04-26 21:44 25.80449 -81.72445 20965 ft 419 kts 150°
2026-04-26 21:44 25.77974 -81.70741 20965 ft 419 kts 150°
2026-04-26 21:44 25.75497 -81.69035 20966 ft 419 kts 150°
2026-04-26 21:45 25.73023 -81.67334 20968 ft 419 kts 150°
2026-04-26 21:45 25.70543 -81.65633 20957 ft 419 kts 150°
2026-04-26 21:45 25.68064 -81.63936 20969 ft 419 kts 150°
2026-04-26 21:45 25.65616 -81.62259 20969 ft 419 kts 150°
2026-04-26 21:46 25.63151 -81.60567 20828 ft 413 kts 150°
2026-04-26 21:46 25.60736 -81.58909 20647 ft 403 kts 150°
2026-04-26 21:46 25.58375 -81.57290 20524 ft 396 kts 150°
2026-04-26 21:46 25.56039 -81.55690 20405 ft 394 kts 150°
2026-04-26 21:47 25.53695 -81.54137 20034 ft 390 kts 155°
2026-04-26 21:47 25.51144 -81.53094 18959 ft 393 kts 171°
2026-04-26 21:47 25.48469 -81.52834 18501 ft 378 kts 185°
2026-04-26 21:47 25.45888 -81.53202 18089 ft 371 kts 198°
2026-04-26 21:48 25.43482 -81.54131 17639 ft 364 kts 206°
2026-04-26 21:48 25.41155 -81.55205 17200 ft 361 kts 206°
2026-04-26 21:48 25.38845 -81.56271 16779 ft 358 kts 206°
2026-04-26 21:48 25.36583 -81.57313 16374 ft 356 kts 206°
2026-04-26 21:49 25.34304 -81.58366 15961 ft 354 kts 206°
2026-04-26 21:49 25.32032 -81.59417 15547 ft 353 kts 206°
2026-04-26 21:49 25.29773 -81.60460 15124 ft 352 kts 206°
2026-04-26 21:49 25.27515 -81.61500 14687 ft 351 kts 206°
2026-04-26 21:50 25.25258 -81.62542 14251 ft 351 kts 206°
2026-04-26 21:50 25.23767 -81.63231 13963 ft 351 kts 206°
2026-04-26 21:50 25.20757 -81.64622 13347 ft 350 kts 206°
2026-04-26 21:50 25.18515 -81.65654 12898 ft 348 kts 206°
2026-04-26 21:51 25.16287 -81.66681 12468 ft 346 kts 206°
2026-04-26 21:51 25.14104 -81.67688 12031 ft 344 kts 206°
2026-04-26 21:51 25.11906 -81.68703 11588 ft 342 kts 206°
2026-04-26 21:51 25.09720 -81.69714 11143 ft 340 kts 206°
2026-04-26 21:52 25.07549 -81.70717 10700 ft 338 kts 205°
2026-04-26 21:52 25.05386 -81.71714 10265 ft 336 kts 205°
2026-04-26 21:52 25.03251 -81.72695 10025 ft 327 kts 205°
2026-04-26 21:52 25.01192 -81.73639 9987 ft 312 kts 205°
2026-04-26 21:53 24.99227 -81.74539 9996 ft 302 kts 206°
2026-04-26 21:53 24.97296 -81.75424 9998 ft 300 kts 206°
2026-04-26 21:53 24.95376 -81.76306 9999 ft 299 kts 206°
2026-04-26 21:53 24.93458 -81.77186 9868 ft 297 kts 206°
2026-04-26 21:54 24.91556 -81.78060 9495 ft 296 kts 205°
2026-04-26 21:54 24.89688 -81.78917 9116 ft 294 kts 205°
2026-04-26 21:54 24.87765 -81.79665 8749 ft 294 kts 195°
2026-04-26 21:54 24.85745 -81.80031 8375 ft 293 kts 191°
2026-04-26 21:55 24.83736 -81.80363 8005 ft 291 kts 191°
2026-04-26 21:55 24.81737 -81.80694 7638 ft 289 kts 191°
2026-04-26 21:55 24.79753 -81.81024 7272 ft 287 kts 191°
2026-04-26 21:55 24.77783 -81.81352 6921 ft 285 kts 191°
2026-04-26 21:56 24.75825 -81.81680 6569 ft 283 kts 191°
2026-04-26 21:56 24.73888 -81.82003 6207 ft 281 kts 191°
2026-04-26 21:56 24.71967 -81.82324 5997 ft 279 kts 190°
2026-04-26 21:56 24.70047 -81.82644 6002 ft 279 kts 190°
2026-04-26 21:57 24.68150 -81.82962 6004 ft 280 kts 190°
2026-04-26 21:57 24.66226 -81.83283 6005 ft 280 kts 190°
2026-04-26 21:57 24.64299 -81.83603 6005 ft 280 kts 190°
2026-04-26 21:57 24.62374 -81.83922 6004 ft 280 kts 190°
2026-04-26 21:58 24.60453 -81.84242 6006 ft 275 kts 190°
2026-04-26 21:58 24.58626 -81.84545 6003 ft 257 kts 190°
2026-04-26 21:58 24.56892 -81.84833 6006 ft 249 kts 191°
2026-04-26 21:58 24.55179 -81.85053 6008 ft 248 kts 182°
2026-04-26 21:59 24.53451 -81.85004 6009 ft 249 kts 180°
2026-04-26 21:59 24.51718 -81.84950 6009 ft 249 kts 180°
2026-04-26 21:59 24.49991 -81.84898 6009 ft 249 kts 180°
2026-04-26 21:59 24.48295 -81.84693 6005 ft 251 kts 161°
2026-04-26 22:00 24.46867 -81.83622 5855 ft 251 kts 128°
2026-04-26 22:00 24.46191 -81.81882 5380 ft 255 kts 97°
2026-04-26 22:00 24.46115 -81.79897 4851 ft 260 kts 88°
2026-04-26 22:00 24.46164 -81.77979 4722 ft 243 kts 88°
2026-04-26 22:01 24.46213 -81.76159 4574 ft 235 kts 88°
2026-04-26 22:01 24.46262 -81.74377 4307 ft 233 kts 88°
2026-04-26 22:01 24.46312 -81.72607 4011 ft 232 kts 88°
2026-04-26 22:01 24.46354 -81.70843 3703 ft 231 kts 89°
2026-04-26 22:02 24.46375 -81.69084 3398 ft 230 kts 89°
2026-04-26 22:02 24.46385 -81.67922 3201 ft 229 kts 89°
2026-04-26 22:02 24.46400 -81.65612 2993 ft 228 kts 89°
2026-04-26 22:02 24.46412 -81.63875 2995 ft 228 kts 89°
2026-04-26 22:03 24.46422 -81.62132 2999 ft 229 kts 89°
2026-04-26 22:03 24.46433 -81.60385 3000 ft 229 kts 89°
2026-04-26 22:03 24.46445 -81.58690 2983 ft 215 kts 89°
2026-04-26 22:03 24.46631 -81.57103 3038 ft 209 kts 69°
2026-04-26 22:04 24.47442 -81.55811 3013 ft 206 kts 39°
2026-04-26 22:04 24.48704 -81.55121 2995 ft 203 kts 11°
2026-04-26 22:04 24.50107 -81.55061 2995 ft 202 kts 358°
2026-04-26 22:04 24.51499 -81.55082 2753 ft 200 kts 358°
2026-04-26 22:05 24.52888 -81.55099 2440 ft 199 kts 358°
2026-04-26 22:05 24.54263 -81.55174 2190 ft 194 kts 347°
2026-04-26 22:05 24.55042 -81.55576 2112 ft 184 kts 321°
2026-04-26 22:05 24.55720 -81.56708 2032 ft 178 kts 284°
2026-04-26 22:06 24.55640 -81.58479 2004 ft 175 kts 264°
2026-04-26 22:06 24.55608 -81.59817 2006 ft 176 kts 270°
2026-04-26 22:06 24.55626 -81.61156 2002 ft 175 kts 271°
2026-04-26 22:06 24.55646 -81.62496 2001 ft 175 kts 271°
2026-04-26 22:07 24.55654 -81.63340 1990 ft 158 kts 271°
2026-04-26 22:07 24.55663 -81.64490 1884 ft 145 kts 270°
2026-04-26 22:07 24.55674 -81.65575 1746 ft 140 kts 271°
2026-04-26 22:07 24.55671 -81.66635 1592 ft 138 kts 270°
2026-04-26 22:08 24.55659 -81.67685 1447 ft 137 kts 269°
2026-04-26 22:08 24.55640 -81.68728 1252 ft 136 kts 269°
2026-04-26 22:08 24.55624 -81.69767 1055 ft 136 kts 269°
2026-04-26 22:08 24.55615 -81.70803 889 ft 135 kts 270°
2026-04-26 22:09 24.55630 -81.71838 722 ft 136 kts 271°
2026-04-26 22:09 24.55642 -81.72867 536 ft 135 kts 270°
2026-04-26 22:09 24.55616 -81.73890 330 ft 133 kts 272°
2026-04-26 22:09 24.55623 -81.74889 113 ft 132 kts 269°
2026-04-26 22:10 24.55619 -81.75840 17 ft 111 kts 269°
2026-04-26 22:10 24.55610 -81.76767 149 ft 133 kts 270°
2026-04-26 22:10 24.55597 -81.77848 618 ft 156 kts 269°
2026-04-26 22:10 24.55593 -81.79148 1040 ft 183 kts 269°
2026-04-26 22:11 24.55585 -81.80632 1303 ft 201 kts 269°
2026-04-26 22:11 24.55506 -81.82212 1472 ft 219 kts 259°
2026-04-26 22:11 24.54767 -81.83704 2132 ft 231 kts 224°
2026-04-26 22:11 24.53360 -81.84564 2767 ft 237 kts 194°
2026-04-26 22:12 24.51747 -81.84647 2951 ft 236 kts 176°
2026-04-26 22:12 24.50120 -81.84473 3000 ft 235 kts 174°
2026-04-26 22:12 24.48524 -81.84136 3005 ft 235 kts 156°
2026-04-26 22:12 24.47255 -81.83035 3009 ft 235 kts 129°
2026-04-26 22:13 24.46271 -81.81596 3006 ft 236 kts 125°
2026-04-26 22:13 24.45334 -81.80111 3009 ft 237 kts 123°
2026-04-26 22:13 24.44756 -81.78438 3007 ft 236 kts 96°
2026-04-26 22:13 24.44804 -81.76637 3010 ft 237 kts 84°
2026-04-26 22:14 24.44946 -81.74831 3009 ft 238 kts 85°
2026-04-26 22:14 24.45086 -81.73047 3008 ft 238 kts 85°
2026-04-26 22:14 24.45227 -81.71243 3006 ft 238 kts 85°
2026-04-26 22:14 24.45365 -81.69435 3005 ft 238 kts 85°
2026-04-26 22:15 24.45503 -81.67628 2998 ft 238 kts 85°
2026-04-26 22:15 24.45642 -81.65819 3001 ft 237 kts 85°
2026-04-26 22:15 24.45783 -81.64014 3000 ft 238 kts 85°
2026-04-26 22:15 24.45923 -81.62205 3000 ft 238 kts 85°
2026-04-26 22:16 24.46063 -81.60396 2997 ft 238 kts 85°
2026-04-26 22:16 24.46201 -81.58591 2999 ft 237 kts 85°
2026-04-26 22:16 24.46348 -81.56784 2998 ft 238 kts 84°
2026-04-26 22:16 24.46514 -81.54981 2993 ft 238 kts 80°
2026-04-26 22:17 24.47188 -81.53352 2951 ft 235 kts 48°
2026-04-26 22:17 24.48482 -81.52396 2760 ft 225 kts 15°
2026-04-26 22:17 24.50014 -81.52175 2499 ft 221 kts
2026-04-26 22:17 24.51542 -81.52244 2211 ft 219 kts 345°
2026-04-26 22:18 24.52887 -81.52955 1839 ft 214 kts 324°
2026-04-26 22:18 24.54110 -81.53867 1250 ft 212 kts 325°
2026-04-26 22:18 24.55330 -81.54779 891 ft 212 kts 324°
2026-04-26 22:18 24.56507 -81.55748 926 ft 214 kts 313°
2026-04-26 22:19 24.57193 -81.57165 841 ft 211 kts 279°
2026-04-26 22:19 24.57170 -81.58785 941 ft 214 kts 261°
2026-04-26 22:19 24.56900 -81.60390 1103 ft 208 kts 259°
2026-04-26 22:19 24.56667 -81.61910 1085 ft 198 kts 261°
2026-04-26 22:20 24.56454 -81.63311 1180 ft 171 kts 261°
2026-04-26 22:20 24.56281 -81.64478 1292 ft 148 kts 261°
2026-04-26 22:20 24.56121 -81.65562 1236 ft 141 kts 262°
2026-04-26 22:20 24.55988 -81.66611 1098 ft 138 kts 263°
2026-04-26 22:21 24.55880 -81.67647 964 ft 136 kts 265°
2026-04-26 22:21 24.55773 -81.68676 854 ft 135 kts 264°
2026-04-26 22:21 24.55700 -81.69713 747 ft 143 kts 267°
2026-04-26 22:21 24.55652 -81.70902 792 ft 167 kts 270°
2026-04-26 22:22 24.55626 -81.72170 744 ft 156 kts 269°
2026-04-26 22:22 24.55621 -81.73303 507 ft 142 kts 271°
2026-04-26 22:22 24.55608 -81.74351 291 ft 132 kts 271°
2026-04-26 22:22 24.55621 -81.75333 40 ft 123 kts 270°
2026-04-26 22:23 24.55615 -81.76119 11 ft 69 kts 269°